| time (UTC) | temp F | wind direction | speed MPH | gust MPH | rain 1hr in | rain 24hr in | rain mn in | humidity % | barometer mb |
| 20260507002647 | 48 | 312 | 1.0 | 2.0 | 0.00 | 0.00 | 0.00 | 10 | 1011.2 |
| 20260507002147 | 49 | 312 | 2.0 | 4.0 | 0.00 | 0.00 | 0.00 | 10 | 1011.2 |
| 20260507001647 | 49 | 312 | 3.0 | 6.0 | 0.00 | 0.00 | 0.00 | 10 | 1011.2 |
| 20260507001147 | 48 | 312 | 3.0 | 6.0 | 0.00 | 0.00 | 0.00 | 10 | 1011.2 |
| 20260507000647 | 49 | 312 | 3.0 | 6.0 | 0.00 | 0.00 | 0.00 | 10 | 1011.1 |
| 20260507000147 | 49 | 307 | 0.0 | 2.0 | 0.00 | 0.00 | 0.00 | 10 | 1011.1 |
| 20260506235647 | 49 | 307 | 0.0 | 2.0 | 0.00 | 0.00 | 0.00 | 10 | 1011.1 |
| 20260506235147 | 48 | 307 | 0.0 | 2.0 | 0.00 | 0.00 | 0.00 | 10 | 1011.1 |
| 20260506234647 | 49 | 307 | 1.0 | 3.0 | 0.00 | 0.00 | 0.00 | 10 | 1011.1 |
| 20260506234147 | 49 | 307 | 1.0 | 3.0 | 0.00 | 0.00 | 0.00 | 10 | 1011.1 |
| 20260506233647 | 49 | 307 | 1.0 | 3.0 | 0.00 | 0.00 | 0.00 | 10 | 1011.0 |
| 20260506233147 | 49 | 307 | 2.0 | 5.0 | 0.00 | 0.00 | 0.00 | 10 | 1011.0 |
| 20260506232647 | 49 | 307 | 3.0 | 7.0 | 0.00 | 0.00 | 0.00 | 10 | 1011.0 |
| 20260506232147 | 49 | 307 | 3.0 | 7.0 | 0.00 | 0.00 | 0.00 | 10 | 1011.0 |
| 20260506231647 | 49 | 307 | 3.0 | 7.0 | 0.00 | 0.00 | 0.00 | 10 | 1011.0 |
| 20260506231147 | 49 | 307 | 0.0 | 2.0 | 0.00 | 0.00 | 0.00 | 10 | 1011.0 |
| 20260506230646 | 49 | 307 | 0.0 | 2.0 | 0.00 | 0.00 | 0.00 | 10 | 1011.0 |
| 20260506230146 | 49 | 307 | 1.0 | 3.0 | 0.00 | 0.00 | 0.00 | 10 | 1010.9 |
| 20260506225646 | 49 | 307 | 1.0 | 3.0 | 0.00 | 0.00 | 0.00 | 10 | 1010.8 |
| 20260506225146 | 49 | 307 | 2.0 | 5.0 | 0.00 | 0.00 | 0.00 | 10 | 1010.8 |
| 20260506224646 | 49 | 307 | 3.0 | 7.0 | 0.00 | 0.00 | 0.00 | 10 | 1010.8 |
| 20260506224146 | 49 | 307 | 3.0 | 7.0 | 0.00 | 0.00 | 0.00 | 10 | 1010.7 |
| 20260506223646 | 49 | 307 | 3.0 | 7.0 | 0.00 | 0.00 | 0.00 | 10 | 1010.8 |
| 20260506223146 | 49 | 307 | 0.0 | 2.0 | 0.00 | 0.00 | 0.00 | 10 | 1010.7 |
| 20260506222646 | 49 | 307 | 0.0 | 2.0 | 0.00 | 0.00 | 0.00 | 10 | 1010.7 |
| 20260506222146 | 49 | 307 | 0.0 | 2.0 | 0.00 | 0.00 | 0.00 | 10 | 1010.7 |
| 20260506221646 | 49 | 307 | 1.0 | 4.0 | 0.00 | 0.00 | 0.00 | 10 | 1010.6 |
| 20260506221146 | 49 | 307 | 1.0 | 4.0 | 0.00 | 0.00 | 0.00 | 10 | 1010.6 |
| 20260506220646 | 49 | 307 | 1.0 | 4.0 | 0.00 | 0.00 | 0.00 | 10 | 1010.5 |
| 20260506220146 | 49 | 307 | 2.0 | 6.0 | 0.00 | 0.00 | 0.00 | 10 | 1010.5 |
| 20260506215646 | 49 | 307 | 2.0 | 6.0 | 0.00 | 0.00 | 0.00 | 10 | 1010.5 |
| 20260506215145 | 49 | 307 | 2.0 | 6.0 | 0.00 | 0.00 | 0.00 | 10 | 1010.6 |
| 20260506214645 | 49 | 307 | 4.0 | 9.0 | 0.00 | 0.00 | 0.00 | 10 | 1010.5 |
| 20260506214145 | 49 | 307 | 4.0 | 9.0 | 0.00 | 0.00 | 0.00 | 10 | 1010.4 |
| 20260506213645 | 49 | 307 | 4.0 | 9.0 | 0.00 | 0.00 | 0.00 | 10 | 1010.4 |
| 20260506213145 | 49 | 296 | 0.0 | 2.0 | 0.00 | 0.00 | 0.00 | 10 | 1010.4 |
| 20260506212645 | 49 | 296 | 0.0 | 2.0 | 0.00 | 0.00 | 0.00 | 10 | 1010.3 |
| 20260506212145 | 49 | 296 | 0.0 | 2.0 | 0.00 | 0.00 | 0.00 | 10 | 1010.3 |
| 20260506211645 | 49 | 296 | 1.0 | 3.0 | 0.00 | 0.00 | 0.00 | 10 | 1010.3 |
| 20260506211145 | 49 | 296 | 1.0 | 3.0 | 0.00 | 0.00 | 0.00 | 10 | 1010.2 |
| 20260506210645 | 49 | 296 | 1.0 | 3.0 | 0.00 | 0.00 | 0.00 | 10 | 1010.2 |
| 20260506210144 | 49 | 296 | 2.0 | 5.0 | 0.00 | 0.00 | 0.00 | 10 | 1010.2 |
| 20260506205644 | 49 | 296 | 2.0 | 5.0 | 0.00 | 0.00 | 0.00 | 10 | 1010.3 |
| 20260506205144 | 49 | 296 | 3.0 | 8.0 | 0.00 | 0.00 | 0.00 | 10 | 1010.2 |
| 20260506204644 | 49 | 296 | 3.0 | 8.0 | 0.00 | 0.00 | 0.00 | 10 | 1010.3 |
| 20260506204144 | 50 | 296 | 3.0 | 8.0 | 0.00 | 0.00 | 0.00 | 10 | 1010.2 |
| 20260506203644 | 50 | 305 | 0.0 | 2.0 | 0.00 | 0.00 | 0.00 | 10 | 1010.1 |
| 20260506203144 | 50 | 305 | 0.0 | 2.0 | 0.00 | 0.00 | 0.00 | 10 | 1010.1 |
| 20260506202644 | 50 | 305 | 1.0 | 3.0 | 0.00 | 0.00 | 0.00 | 10 | 1010.1 |
| 20260506202144 | 50 | 305 | 2.0 | 5.0 | 0.00 | 0.00 | 0.00 | 10 | 1010.0 |
| 20260506201644 | 50 | 305 | 2.0 | 5.0 | 0.00 | 0.00 | 0.00 | 10 | 1010.0 |
| 20260506201143 | 50 | 305 | 2.0 | 5.0 | 0.00 | 0.00 | 0.00 | 10 | 1009.9 |
| 20260506200643 | 50 | 305 | 3.0 | 8.0 | 0.00 | 0.00 | 0.00 | 10 | 1009.8 |
| 20260506200143 | 50 | 305 | 3.0 | 8.0 | 0.00 | 0.00 | 0.00 | 10 | 1009.8 |
| 20260506195643 | 50 | 305 | 3.0 | 8.0 | 0.00 | 0.00 | 0.00 | 10 | 1009.7 |
| 20260506195143 | 50 | 309 | 0.0 | 2.0 | 0.00 | 0.00 | 0.00 | 10 | 1009.6 |
| 20260506194643 | 50 | 309 | 0.0 | 2.0 | 0.00 | 0.00 | 0.00 | 10 | 1009.6 |
| 20260506194143 | 50 | 309 | 1.0 | 3.0 | 0.00 | 0.00 | 0.00 | 10 | 1009.6 |
| 20260506193643 | 50 | 309 | 1.0 | 3.0 | 0.00 | 0.00 | 0.00 | 10 | 1009.5 |
| 20260506193143 | 50 | 309 | 1.0 | 3.0 | 0.00 | 0.00 | 0.00 | 10 | 1009.5 |
| 20260506192643 | 50 | 309 | 2.0 | 5.0 | 0.00 | 0.00 | 0.00 | 10 | 1009.4 |
| 20260506192143 | 51 | 309 | 2.0 | 5.0 | 0.00 | 0.00 | 0.00 | 10 | 1009.4 |
| 20260506191643 | 51 | 309 | 2.0 | 5.0 | 0.00 | 0.00 | 0.00 | 10 | 1009.3 |
| 20260506191143 | 51 | 309 | 3.0 | 7.0 | 0.00 | 0.00 | 0.00 | 10 | 1009.2 |
| 20260506190643 | 51 | 309 | 3.0 | 7.0 | 0.00 | 0.00 | 0.00 | 10 | 1009.1 |
| 20260506190143 | 51 | 309 | 3.0 | 7.0 | 0.00 | 0.00 | 0.00 | 10 | 1008.9 |
| 20260506185642 | 51 | 309 | 5.0 | 11.0 | 0.00 | 0.00 | 0.00 | 10 | 1008.8 |
| 20260506185142 | 52 | 309 | 5.0 | 11.0 | 0.00 | 0.00 | 0.00 | 10 | 1008.7 |
| 20260506184642 | 51 | 306 | 0.0 | 2.0 | 0.00 | 0.00 | 0.00 | 10 | 1008.6 |
| 20260506184142 | 51 | 306 | 0.0 | 2.0 | 0.00 | 0.00 | 0.00 | 10 | 1008.5 |
| 20260506183642 | 52 | 306 | 0.0 | 2.0 | 0.00 | 0.00 | 0.00 | 10 | 1008.4 |
| 20260506183142 | 52 | 306 | 1.0 | 4.0 | 0.00 | 0.00 | 0.00 | 10 | 1008.3 |
| 20260506182642 | 52 | 306 | 1.0 | 4.0 | 0.00 | 0.00 | 0.00 | 10 | 1008.4 |
| 20260506182142 | 52 | 306 | 1.0 | 4.0 | 0.00 | 0.00 | 0.00 | 10 | 1008.2 |
| 20260506181642 | 52 | 306 | 2.0 | 6.0 | 0.00 | 0.00 | 0.00 | 10 | 1008.2 |
| 20260506181142 | 53 | 306 | 4.0 | 9.0 | 0.00 | 0.00 | 0.00 | 10 | 1008.1 |
| 20260506180642 | 53 | 306 | 4.0 | 9.0 | 0.00 | 0.00 | 0.00 | 10 | 1008.2 |
| 20260506180142 | 53 | 306 | 4.0 | 9.0 | 0.00 | 0.00 | 0.00 | 10 | 1008.2 |
| 20260506175642 | 53 | 306 | 0.0 | 2.0 | 0.00 | 0.00 | 0.00 | 10 | 1008.1 |
| 20260506175141 | 53 | 306 | 1.0 | 4.0 | 0.00 | 0.00 | 0.00 | 10 | 1008.0 |
| 20260506174641 | 53 | 306 | 2.0 | 6.0 | 0.00 | 0.00 | 0.00 | 10 | 1007.9 |
| 20260506174141 | 54 | 306 | 2.0 | 6.0 | 0.00 | 0.00 | 0.00 | 10 | 1007.9 |
| 20260506173641 | 54 | 306 | 4.0 | 9.0 | 0.00 | 0.00 | 0.00 | 10 | 1007.9 |
| 20260506173141 | 54 | 318 | 0.0 | 2.0 | 0.00 | 0.00 | 0.00 | 10 | 1007.9 |
| 20260506172641 | 54 | 318 | 0.0 | 2.0 | 0.00 | 0.00 | 0.00 | 10 | 1007.8 |
| 20260506172141 | 54 | 318 | 1.0 | 3.0 | 0.00 | 0.00 | 0.00 | 10 | 1007.7 |
| 20260506171641 | 54 | 318 | 1.0 | 3.0 | 0.00 | 0.00 | 0.00 | 10 | 1007.8 |
| 20260506171141 | 54 | 318 | 2.0 | 5.0 | 0.00 | 0.00 | 0.00 | 10 | 1007.9 |
| 20260506170641 | 54 | 318 | 2.0 | 5.0 | 0.00 | 0.00 | 0.00 | 10 | 1007.7 |
| 20260506170141 | 54 | 318 | 2.0 | 5.0 | 0.00 | 0.00 | 0.00 | 10 | 1007.7 |
| 20260506165641 | 55 | 318 | 4.0 | 7.0 | 0.00 | 0.00 | 0.00 | 10 | 1007.7 |
| 20260506165141 | 55 | 318 | 4.0 | 7.0 | 0.00 | 0.00 | 0.00 | 10 | 1007.7 |
| 20260506164641 | 55 | 323 | 0.0 | 1.0 | 0.00 | 0.00 | 0.00 | 10 | 1007.7 |
| 20260506164141 | 55 | 323 | 0.0 | 1.0 | 0.00 | 0.00 | 0.00 | 10 | 1007.7 |
| 20260506163641 | 55 | 323 | 0.0 | 1.0 | 0.00 | 0.00 | 0.00 | 10 | 1007.6 |
| 20260506163140 | 55 | 323 | 1.0 | 2.0 | 0.00 | 0.00 | 0.00 | 10 | 1007.6 |
| 20260506162640 | 55 | 323 | 2.0 | 3.0 | 0.00 | 0.00 | 0.00 | 10 | 1007.5 |
| 20260506162140 | 55 | 323 | 2.0 | 3.0 | 0.00 | 0.00 | 0.00 | 10 | 1007.5 |
| 20260506161640 | 55 | 323 | 3.0 | 5.0 | 0.00 | 0.00 | 0.00 | 10 | 1007.6 |
| 20260506161140 | 55 | 323 | 3.0 | 5.0 | 0.00 | 0.00 | 0.00 | 10 | 1007.5 |
| 20260506160640 | 55 | 323 | 3.0 | 5.0 | 0.00 | 0.00 | 0.00 | 10 | 1007.6 |
| 20260506160140 | 55 | 323 | 5.0 | 7.0 | 0.00 | 0.00 | 0.00 | 10 | 1007.6 |
| 20260506155640 | 55 | 323 | 5.0 | 7.0 | 0.00 | 0.00 | 0.00 | 10 | 1007.5 |
| 20260506155140 | 55 | 323 | 5.0 | 7.0 | 0.00 | 0.00 | 0.00 | 10 | 1007.4 |
| 20260506154640 | 55 | 316 | 0.0 | 1.0 | 0.00 | 0.00 | 0.00 | 10 | 1007.4 |
| 20260506154140 | 55 | 316 | 0.0 | 1.0 | 0.00 | 0.00 | 0.00 | 10 | 1007.3 |
| 20260506153640 | 55 | 316 | 1.0 | 2.0 | 0.00 | 0.00 | 0.00 | 10 | 1007.3 |
| 20260506153140 | 55 | 316 | 1.0 | 2.0 | 0.00 | 0.00 | 0.00 | 10 | 1007.3 |
| 20260506152640 | 56 | 316 | 2.0 | 3.0 | 0.00 | 0.00 | 0.00 | 10 | 1007.2 |
| 20260506152140 | 57 | 316 | 2.0 | 3.0 | 0.00 | 0.00 | 0.00 | 10 | 1007.2 |
| 20260506151639 | 58 | 316 | 4.0 | 5.0 | 0.00 | 0.00 | 0.00 | 10 | 1007.1 |
| 20260506151139 | 58 | 316 | 6.0 | 7.0 | 0.00 | 0.00 | 0.00 | 10 | 1007.0 |
| 20260506150639 | 59 | 316 | 6.0 | 7.0 | 0.00 | 0.00 | 0.00 | 10 | 1006.9 |
| 20260506150139 | 60 | 309 | 0.0 | 1.0 | 0.00 | 0.00 | 0.00 | 97 | 1006.8 |
| 20260506145639 | 60 | 309 | 0.0 | 1.0 | 0.00 | 0.00 | 0.00 | 97 | 1006.8 |
| 20260506145139 | 60 | 309 | 0.0 | 1.0 | 0.00 | 0.00 | 0.00 | 99 | 1006.8 |
| 20260506144639 | 59 | 309 | 1.0 | 2.0 | 0.00 | 0.00 | 0.00 | 10 | 1006.9 |
| 20260506144139 | 59 | 309 | 2.0 | 3.0 | 0.00 | 0.00 | 0.00 | 10 | 1006.8 |
| 20260506143639 | 60 | 309 | 2.0 | 3.0 | 0.00 | 0.00 | 0.00 | 99 | 1006.8 |
| 20260506143139 | 60 | 309 | 2.0 | 3.0 | 0.00 | 0.00 | 0.00 | 96 | 1006.8 |
| 20260506142639 | 60 | 309 | 4.0 | 5.0 | 0.00 | 0.00 | 0.00 | 93 | 1006.9 |
| 20260506142138 | 60 | 309 | 4.0 | 5.0 | 0.00 | 0.00 | 0.00 | 88 | 1006.8 |
| 20260506141638 | 61 | 309 | 6.0 | 8.0 | 0.00 | 0.00 | 0.00 | 87 | 1006.9 |
| 20260506141138 | 61 | 309 | 6.0 | 8.0 | 0.00 | 0.00 | 0.00 | 85 | 1006.8 |
| 20260506140638 | 62 | 309 | 6.0 | 8.0 | 0.00 | 0.00 | 0.00 | 80 | 1006.7 |
| 20260506140138 | 62 | 309 | 6.0 | 8.0 | 0.00 | 0.00 | 0.00 | 77 | 1006.7 |
| 20260506135638 | 63 | 309 | 6.0 | 8.0 | 0.00 | 0.00 | 0.00 | 70 | 1006.7 |
| 20260506135138 | 63 | 309 | 6.0 | 8.0 | 0.00 | 0.00 | 0.00 | 70 | 1006.6 |
| 20260506134638 | 63 | 309 | 6.0 | 8.0 | 0.00 | 0.00 | 0.00 | 69 | 1006.6 |
| 20260506134138 | 64 | 309 | 6.0 | 8.0 | 0.00 | 0.00 | 0.00 | 74 | 1006.5 |
| 20260506133638 | 65 | 309 | 6.0 | 8.0 | 0.00 | 0.00 | 0.00 | 68 | 1006.5 |
| 20260506133138 | 67 | 303 | 6.0 | 8.0 | 0.00 | 0.00 | 0.00 | 64 | 1006.5 |
| 20260506132638 | 67 | 303 | 6.0 | 8.0 | 0.00 | 0.00 | 0.00 | 62 | 1006.4 |
| 20260506132138 | 68 | 303 | 6.0 | 8.0 | 0.00 | 0.00 | 0.00 | 58 | 1006.4 |
| 20260506131638 | 68 | 303 | 6.0 | 8.0 | 0.00 | 0.00 | 0.00 | 59 | 1006.4 |
| 20260506131137 | 67 | 303 | 6.0 | 8.0 | 0.00 | 0.00 | 0.00 | 59 | 1006.4 |
| 20260506130637 | 67 | 303 | 6.0 | 8.0 | 0.00 | 0.00 | 0.00 | 59 | 1006.3 |
| 20260506130137 | 67 | 303 | 6.0 | 8.0 | 0.00 | 0.00 | 0.00 | 63 | 1006.3 |
| 20260506125637 | 66 | 255 | 8.0 | 10.0 | 0.00 | 0.00 | 0.00 | 64 | 1006.3 |
| 20260506125137 | 66 | 255 | 8.0 | 10.0 | 0.00 | 0.00 | 0.00 | 64 | 1006.4 |
| 20260506124637 | 64 | 255 | 8.0 | 10.0 | 0.00 | 0.00 | 0.00 | 66 | 1006.4 |
| 20260506124137 | 64 | 255 | 8.0 | 10.0 | 0.00 | 0.00 | 0.00 | 66 | 1006.4 |
| 20260506123637 | 64 | 255 | 8.0 | 10.0 | 0.00 | 0.00 | 0.00 | 69 | 1006.4 |
| 20260506123137 | 64 | 245 | 8.0 | 9.0 | 0.00 | 0.00 | 0.00 | 68 | 1006.5 |
| 20260506122637 | 65 | 245 | 8.0 | 9.0 | 0.00 | 0.00 | 0.00 | 63 | 1006.4 |
| 20260506122137 | 67 | 245 | 8.0 | 9.0 | 0.00 | 0.00 | 0.00 | 61 | 1006.5 |
| 20260506121637 | 67 | 245 | 8.0 | 9.0 | 0.00 | 0.00 | 0.00 | 62 | 1006.5 |
| 20260506121137 | 67 | 245 | 8.0 | 9.0 | 0.00 | 0.00 | 0.00 | 62 | 1006.5 |
| 20260506120637 | 66 | 245 | 8.0 | 9.0 | 0.00 | 0.00 | 0.00 | 63 | 1006.5 |
| 20260506120137 | 66 | 245 | 5.0 | 6.0 | 0.00 | 0.00 | 0.00 | 64 | 1006.5 |
| 20260506115637 | 66 | 245 | 5.0 | 6.0 | 0.00 | 0.00 | 0.00 | 65 | 1006.5 |
| 20260506115137 | 65 | 245 | 5.0 | 6.0 | 0.00 | 0.00 | 0.00 | 66 | 1006.5 |
| 20260506114636 | 64 | 245 | 8.0 | 9.0 | 0.00 | 0.00 | 0.00 | 67 | 1006.4 |
| 20260506114142 | 65 | 245 | 8.0 | 9.0 | 0.00 | 0.00 | 0.00 | 66 | 1006.5 |
| 20260506113636 | 65 | 236 | 1.0 | 1.0 | 0.00 | 0.00 | 0.00 | 67 | 1006.5 |
| 20260506113136 | 65 | 236 | 1.0 | 1.0 | 0.00 | 0.00 | 0.00 | 66 | 1006.5 |
| 20260506112636 | 64 | 236 | 1.0 | 1.0 | 0.00 | 0.00 | 0.00 | 69 | 1006.6 |
| 20260506112136 | 63 | 236 | 2.0 | 2.0 | 0.00 | 0.00 | 0.00 | 69 | 1006.5 |
| 20260506111636 | 64 | 236 | 2.0 | 2.0 | 0.00 | 0.00 | 0.00 | 66 | 1006.6 |
| 20260506111136 | 64 | 236 | 3.0 | 4.0 | 0.00 | 0.00 | 0.00 | 65 | 1006.5 |
| 20260506110636 | 65 | 236 | 5.0 | 6.0 | 0.00 | 0.00 | 0.00 | 64 | 1006.6 |
| 20260506110136 | 65 | 236 | 7.0 | 9.0 | 0.00 | 0.00 | 0.00 | 64 | 1006.6 |
| 20260506105636 | 65 | 236 | 7.0 | 9.0 | 0.00 | 0.00 | 0.00 | 63 | 1006.7 |
| 20260506105136 | 66 | 236 | 7.0 | 9.0 | 0.00 | 0.00 | 0.00 | 62 | 1006.7 |
| 20260506104636 | 66 | 225 | 5.0 | 5.0 | 0.00 | 0.00 | 0.00 | 61 | 1006.7 |
| 20260506104136 | 66 | 225 | 5.0 | 5.0 | 0.00 | 0.00 | 0.00 | 64 | 1006.7 |
| 20260506103635 | 65 | 225 | 5.0 | 5.0 | 0.00 | 0.00 | 0.00 | 64 | 1006.7 |
| 20260506103135 | 65 | 225 | 7.0 | 8.0 | 0.00 | 0.00 | 0.00 | 66 | 1006.8 |
| 20260506102635 | 64 | 225 | 7.0 | 8.0 | 0.00 | 0.00 | 0.00 | 69 | 1006.8 |
| 20260506102135 | 64 | 225 | 7.0 | 8.0 | 0.00 | 0.00 | 0.00 | 67 | 1006.8 |
| 20260506101635 | 65 | 225 | 7.0 | 8.0 | 0.00 | 0.00 | 0.00 | 64 | 1006.8 |
| 20260506101135 | 66 | 225 | 7.0 | 8.0 | 0.00 | 0.00 | 0.00 | 67 | 1006.8 |
| 20260506100635 | 65 | 225 | 7.0 | 8.0 | 0.00 | 0.00 | 0.00 | 64 | 1006.8 |
| 20260506100135 | 66 | 225 | 7.0 | 8.0 | 0.00 | 0.00 | 0.00 | 66 | 1006.7 |
| 20260506095635 | 64 | 225 | 7.0 | 8.0 | 0.00 | 0.00 | 0.00 | 68 | 1006.7 |
| 20260506095135 | 64 | 225 | 7.0 | 8.0 | 0.00 | 0.00 | 0.00 | 70 | 1006.7 |
| 20260506094635 | 64 | 225 | 7.0 | 8.0 | 0.00 | 0.00 | 0.00 | 70 | 1006.6 |
| 20260506094135 | 64 | 226 | 3.0 | 3.0 | 0.00 | 0.00 | 0.00 | 73 | 1006.5 |
| 20260506093635 | 63 | 226 | 3.0 | 3.0 | 0.00 | 0.00 | 0.00 | 73 | 1006.6 |
| 20260506093135 | 63 | 226 | 3.0 | 3.0 | 0.00 | 0.00 | 0.00 | 73 | 1006.7 |
| 20260506092635 | 62 | 226 | 5.0 | 5.0 | 0.00 | 0.00 | 0.00 | 76 | 1006.6 |
| 20260506092134 | 63 | 226 | 5.0 | 5.0 | 0.00 | 0.00 | 0.00 | 78 | 1006.5 |
| 20260506091635 | 62 | 226 | 7.0 | 8.0 | 0.00 | 0.00 | 0.00 | 76 | 1006.6 |
| 20260506091134 | 63 | 226 | 7.0 | 8.0 | 0.00 | 0.00 | 0.00 | 72 | 1006.7 |
| 20260506090634 | 63 | 226 | 7.0 | 8.0 | 0.00 | 0.00 | 0.00 | 71 | 1006.7 |
| 20260506090134 | 63 | 226 | 7.0 | 8.0 | 0.00 | 0.00 | 0.00 | 72 | 1006.7 |
| 20260506085634 | 63 | 226 | 7.0 | 8.0 | 0.00 | 0.00 | 0.00 | 73 | 1006.7 |
| 20260506085134 | 63 | 226 | 7.0 | 8.0 | 0.00 | 0.00 | 0.00 | 72 | 1006.7 |
| 20260506084634 | 63 | 226 | 7.0 | 8.0 | 0.00 | 0.00 | 0.00 | 73 | 1006.7 |
| 20260506084134 | 62 | 226 | 7.0 | 8.0 | 0.00 | 0.00 | 0.00 | 75 | 1006.7 |
| 20260506083634 | 63 | 235 | 1.0 | 2.0 | 0.00 | 0.00 | 0.00 | 77 | 1006.6 |
| 20260506083134 | 62 | 235 | 1.0 | 2.0 | 0.00 | 0.00 | 0.00 | 77 | 1006.5 |
| 20260506082634 | 62 | 235 | 1.0 | 2.0 | 0.00 | 0.00 | 0.00 | 78 | 1006.4 |
| 20260506082134 | 61 | 235 | 2.0 | 3.0 | 0.00 | 0.00 | 0.00 | 80 | 1006.4 |
| 20260506081634 | 61 | 235 | 4.0 | 5.0 | 0.00 | 0.00 | 0.00 | 81 | 1006.4 |
| 20260506081134 | 61 | 235 | 4.0 | 5.0 | 0.00 | 0.00 | 0.00 | 81 | 1006.4 |
| 20260506080633 | 61 | 235 | 6.0 | 8.0 | 0.00 | 0.00 | 0.00 | 84 | 1006.5 |
| 20260506080133 | 60 | 235 | 6.0 | 8.0 | 0.00 | 0.00 | 0.00 | 83 | 1006.5 |
| 20260506073133 | 58 | 222 | 2.0 | 2.0 | 0.00 | 0.00 | 0.00 | 91 | 1006.5 |
| 20260506072633 | 59 | 222 | 3.0 | 4.0 | 0.00 | 0.00 | 0.00 | 94 | 1006.5 |
| 20260506072133 | 59 | 222 | 3.0 | 4.0 | 0.00 | 0.00 | 0.00 | 94 | 1006.5 |
| 20260506071633 | 59 | 222 | 3.0 | 4.0 | 0.00 | 0.00 | 0.00 | 93 | 1006.6 |
| 20260506071133 | 58 | 222 | 5.0 | 6.0 | 0.00 | 0.00 | 0.00 | 97 | 1006.5 |
| 20260506070633 | 58 | 222 | 7.0 | 9.0 | 0.00 | 0.00 | 0.00 | 96 | 1006.5 |
| 20260506070133 | 58 | 222 | 7.0 | 9.0 | 0.00 | 0.00 | 0.00 | 97 | 1006.4 |
| 20260506062132 | 57 | 224 | 4.0 | 8.0 | 0.00 | 0.00 | 0.00 | 10 | 1006.4 |
| 20260506061632 | 56 | 224 | 6.0 | 12.0 | 0.00 | 0.00 | 0.00 | 10 | 1006.4 |
| 20260506061132 | 56 | 224 | 6.0 | 12.0 | 0.00 | 0.00 | 0.00 | 10 | 1006.3 |
| 20260506060632 | 56 | 224 | 6.0 | 12.0 | 0.00 | 0.00 | 0.00 | 10 | 1006.3 |
| 20260506060132 | 56 | 229 | 0.0 | 2.0 | 0.00 | 0.00 | 0.00 | 10 | 1006.3 |
| 20260506051131 | 54 | 229 | 1.0 | 4.0 | 0.00 | 0.00 | 0.00 | 10 | 1006.2 |
| 20260506050631 | 54 | 229 | 2.0 | 6.0 | 0.00 | 0.00 | 0.00 | 10 | 1006.2 |
| 20260506050131 | 54 | 229 | 2.0 | 6.0 | 0.00 | 0.00 | 0.00 | 10 | 1006.2 |
| 20260506045131 | 54 | 229 | 3.0 | 9.0 | 0.00 | 0.00 | 0.00 | 10 | 1006.2 |
| 20260506044631 | 54 | 229 | 5.0 | 13.0 | 0.00 | 0.00 | 0.00 | 10 | 1006.2 |
| 20260506044131 | 54 | 229 | 5.0 | 13.0 | 0.00 | 0.00 | 0.00 | 10 | 1006.3 |
| 20260506043631 | 54 | 229 | 5.0 | 13.0 | 0.00 | 0.00 | 0.00 | 10 | 1006.4 |
| 20260506043130 | 54 | 226 | 0.0 | 2.0 | 0.00 | 0.00 | 0.00 | 10 | 1006.4 |
| 20260506042630 | 54 | 226 | 0.0 | 2.0 | 0.00 | 0.00 | 0.00 | 10 | 1006.4 |
| 20260506042130 | 54 | 226 | 0.0 | 2.0 | 0.00 | 0.00 | 0.00 | 10 | 1006.5 |
| 20260506041630 | 54 | 226 | 1.0 | 3.0 | 0.00 | 0.00 | 0.00 | 10 | 1006.4 |
| 20260506041130 | 54 | 226 | 1.0 | 3.0 | 0.00 | 0.00 | 0.00 | 10 | 1006.4 |
| 20260506040630 | 54 | 226 | 1.0 | 3.0 | 0.00 | 0.00 | 0.00 | 10 | 1006.5 |
| 20260506040130 | 54 | 226 | 2.0 | 5.0 | 0.00 | 0.00 | 0.00 | 10 | 1006.5 |
| 20260506035630 | 54 | 226 | 2.0 | 5.0 | 0.00 | 0.00 | 0.00 | 10 | 1006.5 |
| 20260506035130 | 54 | 226 | 2.0 | 5.0 | 0.00 | 0.00 | 0.00 | 10 | 1006.6 |
| 20260506034630 | 54 | 226 | 4.0 | 8.0 | 0.00 | 0.00 | 0.00 | 10 | 1006.5 |
| 20260506034130 | 54 | 226 | 4.0 | 8.0 | 0.00 | 0.00 | 0.00 | 10 | 1006.5 |
| 20260506033630 | 54 | 226 | 4.0 | 8.0 | 0.00 | 0.00 | 0.00 | 10 | 1006.5 |
| 20260506033130 | 54 | 226 | 6.0 | 12.0 | 0.00 | 0.00 | 0.00 | 10 | 1006.5 |
| 20260506032630 | 54 | 226 | 6.0 | 12.0 | 0.00 | 0.00 | 0.00 | 10 | 1006.6 |
| 20260506032129 | 54 | 226 | 6.0 | 12.0 | 0.00 | 0.00 | 0.00 | 10 | 1006.6 |
| 20260506031629 | 54 | 222 | 0.0 | 2.0 | 0.00 | 0.00 | 0.00 | 10 | 1006.7 |
| 20260506031129 | 54 | 222 | 0.0 | 2.0 | 0.00 | 0.00 | 0.00 | 10 | 1006.6 |
| 20260506030629 | 53 | 222 | 0.0 | 2.0 | 0.00 | 0.00 | 0.00 | 10 | 1006.7 |
| 20260506030129 | 53 | 222 | 1.0 | 3.0 | 0.00 | 0.00 | 0.00 | 10 | 1006.6 |
| 20260506025629 | 53 | 222 | 1.0 | 3.0 | 0.00 | 0.00 | 0.00 | 10 | 1006.6 |
| 20260506025129 | 53 | 222 | 1.0 | 3.0 | 0.00 | 0.00 | 0.00 | 10 | 1006.6 |
| 20260506024629 | 53 | 222 | 2.0 | 5.0 | 0.00 | 0.00 | 0.00 | 10 | 1006.6 |
| 20260506024129 | 53 | 222 | 2.0 | 5.0 | 0.00 | 0.00 | 0.00 | 10 | 1006.5 |
| 20260506023629 | 53 | 222 | 2.0 | 5.0 | 0.00 | 0.00 | 0.00 | 10 | 1006.5 |
| 20260506023129 | 54 | 222 | 3.0 | 7.0 | 0.00 | 0.00 | 0.00 | 10 | 1006.6 |
| 20260506022629 | 54 | 222 | 3.0 | 7.0 | 0.00 | 0.00 | 0.00 | 10 | 1006.6 |
| 20260506022129 | 54 | 222 | 3.0 | 7.0 | 0.00 | 0.00 | 0.00 | 10 | 1006.6 |
| 20260506021628 | 54 | 222 | 5.0 | 11.0 | 0.00 | 0.00 | 0.00 | 10 | 1006.6 |
| 20260506021128 | 54 | 222 | 5.0 | 11.0 | 0.00 | 0.00 | 0.00 | 10 | 1006.6 |
| 20260506020628 | 54 | 211 | 0.0 | 3.0 | 0.00 | 0.00 | 0.00 | 10 | 1006.7 |
| 20260506020128 | 55 | 211 | 0.0 | 3.0 | 0.00 | 0.00 | 0.00 | 10 | 1006.6 |
| 20260506015628 | 55 | 211 | 1.0 | 5.0 | 0.00 | 0.00 | 0.00 | 10 | 1006.6 |
| 20260506015128 | 55 | 211 | 1.0 | 5.0 | 0.00 | 0.00 | 0.00 | 10 | 1006.7 |
| 20260506014628 | 55 | 211 | 2.0 | 7.0 | 0.00 | 0.00 | 0.00 | 10 | 1006.7 |
| 20260506014128 | 55 | 211 | 2.0 | 7.0 | 0.00 | 0.00 | 0.00 | 10 | 1006.8 |
| 20260506013628 | 55 | 211 | 2.0 | 7.0 | 0.00 | 0.00 | 0.00 | 10 | 1006.9 |
| 20260506013128 | 55 | 211 | 4.0 | 10.0 | 0.00 | 0.00 | 0.00 | 10 | 1007.0 |
| 20260506012628 | 55 | 211 | 4.0 | 10.0 | 0.00 | 0.00 | 0.00 | 10 | 1007.0 |
| 20260506012128 | 55 | 211 | 4.0 | 10.0 | 0.00 | 0.00 | 0.00 | 10 | 1007.0 |
| 20260506011628 | 54 | 209 | 0.0 | 2.0 | 0.00 | 0.00 | 0.00 | 10 | 1007.0 |
| 20260506011128 | 54 | 209 | 1.0 | 4.0 | 0.00 | 0.00 | 0.00 | 10 | 1007.1 |
| 20260506010628 | 54 | 209 | 1.0 | 4.0 | 0.00 | 0.00 | 0.00 | 10 | 1007.1 |
| 20260506010128 | 54 | 209 | 1.0 | 4.0 | 0.00 | 0.00 | 0.00 | 10 | 1007.1 |
| 20260506005628 | 54 | 209 | 2.0 | 6.0 | 0.00 | 0.00 | 0.00 | 10 | 1007.1 |
| 20260506005127 | 54 | 209 | 3.0 | 9.0 | 0.00 | 0.00 | 0.00 | 10 | 1007.1 |
| 20260506004627 | 54 | 209 | 3.0 | 9.0 | 0.00 | 0.00 | 0.00 | 10 | 1007.1 |
| 20260506004127 | 54 | 209 | 3.0 | 9.0 | 0.00 | 0.00 | 0.00 | 10 | 1007.0 |
| 20260506003627 | 54 | 204 | 0.0 | 1.0 | 0.00 | 0.00 | 0.00 | 10 | 1007.0 |
| 20260506003127 | 54 | 204 | 1.0 | 2.0 | 0.00 | 0.00 | 0.00 | 10 | 1007.0 |